Crisp Cnty-Cordele AP, Cordel, GA

7:48 AM EDT on July 22, 2017 (GMT -0400)
Crisp County-Cordele

Weather History for KCKF - January, 2014

Change the Weather History Date:

Wednesday, January 8, 2014

  Actual Average (KFZG) Record (KFZG)
Temperature  
Mean Temperature 36 °F -  
Max Temperature 51 °F 59 °F 57 °F (2016)
Min Temperature 21 °F 40 °F 20 °F (2015)
Degree Days  
Heating Degree Days 30    
Moisture  
Dew Point 14 °F    
Average Humidity 50    
Maximum Humidity 87    
Minimum Humidity 13    
Precipitation  
Precipitation 0.00 in - - ()
Sea Level Pressure  
Sea Level Pressure 30.50 in    
Wind  
Wind Speed 2 mph (ENE)    
Max Wind Speed 8 mph    
Max Gust Speed -    
Visibility 10 miles    
Events      
Averages and records for this station are not official NWS values.
T = Trace of Precipitation, MM = Missing Value Source: NWS Daily Summary

Daily Weather History Graph

Daily Weather History Graph

Search for Another Location

Airport or City:

Trip Planner

Search our weather history database for the weather conditions in past years. The results will help you decide how hot, cold, wet, or windy it might be!

Date:

Astronomy

Jan. 08, 2014 Rise Set
Actual Time 7:36 AM EST 5:47 PM EST
Civil Twilight 7:09 AM EST 6:14 PM EST
Nautical Twilight 6:39 AM EST 6:44 PM EST
Astronomical Twilight 6:09 AM EST 7:13 PM EST
Moon 12:28 PM EST (1/8) 12:53 AM EST (1/8)
Length of Visible Light 11h 04m
Length of Day
10h 10m
First Quarter, 56% of the Moon is Illuminated
Jan 8
First Quarter
Jan 15
Full
Jan 24
Last Quarter
Jan 30
New
Feb 6
First Quarter

Hourly Weather History & Observations

Time (EST) Temp. Windchill Dew Point Humidity Pressure Visibility Wind Dir Wind Speed Gust Speed Precip Events Conditions
12:15 AM 24.6 °F - 19.2 °F 80% 30.53 in 10.0 mi Calm Calm - N/A   Clear
12:35 AM 24.3 °F - 17.6 °F 76% 30.52 in 10.0 mi Calm Calm - N/A   Clear
12:55 AM 23.7 °F - 17.8 °F 78% 30.51 in 10.0 mi Calm Calm - N/A   Clear
1:15 AM 23.7 °F - 18.3 °F 80% 30.51 in 10.0 mi Calm Calm - N/A   Clear
1:35 AM 23.5 °F - 19.4 °F 84% 30.51 in 10.0 mi Calm Calm - N/A   Clear
1:55 AM 23.0 °F - 18.5 °F 83% 30.52 in 10.0 mi Calm Calm - N/A   Clear
2:15 AM 23.2 °F - 18.7 °F 83% 30.52 in 10.0 mi Calm Calm - N/A   Clear
2:35 AM 22.1 °F - 18.7 °F 87% 30.51 in 10.0 mi Calm Calm - N/A   Clear
2:55 AM 22.8 °F - 19.2 °F 86% 30.51 in 10.0 mi Calm Calm - N/A   Clear
3:15 AM 22.3 °F - 18.7 °F 86% 30.51 in 10.0 mi Calm Calm - N/A   Clear
3:35 AM 23.0 °F - 18.0 °F 81% 30.51 in 10.0 mi Calm Calm - N/A   Clear
3:55 AM 22.1 °F - 17.6 °F 83% 30.51 in 10.0 mi Calm Calm - N/A   Clear
4:15 AM 22.1 °F - 18.0 °F 84% 30.52 in 10.0 mi Calm Calm - N/A   Clear
4:35 AM 23.0 °F - 17.1 °F 78% 30.52 in 10.0 mi Calm Calm - N/A   Clear
4:55 AM 23.0 °F - 17.4 °F 79% 30.52 in 10.0 mi Calm Calm - N/A   Clear
5:15 AM 22.1 °F - 18.0 °F 84% 30.52 in 10.0 mi Calm Calm - N/A   Clear
5:35 AM 21.6 °F - 17.6 °F 85% 30.51 in 10.0 mi Calm Calm - N/A   Clear
5:55 AM 21.7 °F - 18.1 °F 86% 30.51 in 10.0 mi Calm Calm - N/A   Clear
6:15 AM 21.9 °F - 17.6 °F 83% 30.50 in 10.0 mi Calm Calm - N/A   Clear
6:35 AM 22.1 °F - 17.6 °F 83% 30.50 in 10.0 mi Calm Calm - N/A   Clear
6:55 AM 22.1 °F 17.4 °F 17.6 °F 83% 30.51 in 10.0 mi NE 3.5 mph - N/A   Clear
7:15 AM 22.8 °F - 16.7 °F 77% 30.52 in 10.0 mi Calm Calm - N/A   Clear
7:35 AM 22.3 °F - 17.1 °F 80% 30.54 in 10.0 mi Calm Calm - N/A   Clear
7:55 AM 23.4 °F - 15.8 °F 73% 30.55 in 10.0 mi Calm Calm - N/A   Clear
8:15 AM 24.6 °F 20.3 °F 15.3 °F 68% 30.55 in 10.0 mi ENE 3.5 mph - N/A   Clear
8:35 AM 25.7 °F 21.5 °F 15.1 °F 64% 30.56 in 10.0 mi ENE 3.5 mph - N/A   Clear
8:55 AM 27.1 °F 21.8 °F 14.9 °F 60% 30.56 in 10.0 mi ENE 4.6 mph - N/A   Clear
9:15 AM 28.9 °F 22.8 °F 14.9 °F 56% 30.57 in 10.0 mi ENE 5.8 mph - N/A   Clear
9:35 AM 31.1 °F 26.4 °F 14.4 °F 50% 30.58 in 10.0 mi ENE 4.6 mph - N/A   Clear
9:55 AM 32.2 °F 27.7 °F 11.8 °F 43% 30.58 in 10.0 mi East 4.6 mph - N/A   Clear
10:15 AM 34.3 °F 27.7 °F 9.0 °F 35% 30.59 in 10.0 mi ENE 8.1 mph - N/A   Clear
10:35 AM 35.8 °F 29.4 °F 6.4 °F 29% 30.59 in 10.0 mi East 8.1 mph - N/A   Clear
10:55 AM 37.8 °F 33.3 °F 6.6 °F 27% 30.59 in 10.0 mi ESE 5.8 mph - N/A   Clear
11:15 AM 38.3 °F 33.2 °F 6.6 °F 27% 30.57 in 10.0 mi East 6.9 mph - N/A   Clear
11:35 AM 39.7 °F 35.6 °F 6.4 °F 25% 30.56 in 10.0 mi East 5.8 mph - N/A   Clear
11:55 AM 40.6 °F 37.5 °F 5.9 °F 24% 30.55 in 10.0 mi SE 4.6 mph - N/A   Clear
12:15 PM 42.3 °F 38.6 °F 6.8 °F 23% 30.53 in 10.0 mi NE 5.8 mph - N/A   Clear
12:35 PM 43.3 °F 41.7 °F 7.0 °F 22% 30.52 in 10.0 mi NNE 3.5 mph - N/A   Clear
12:55 PM 43.9 °F 40.5 °F 7.3 °F 22% 30.50 in 10.0 mi North 5.8 mph - N/A   Clear
1:15 PM 44.6 °F 41.4 °F 10.0 °F 25% 30.49 in 10.0 mi North 5.8 mph - N/A   Clear
1:35 PM 45.0 °F 41.8 °F 9.3 °F 23% 30.48 in 10.0 mi North 5.8 mph - N/A   Clear
1:55 PM 46.0 °F 43.1 °F 9.5 °F 23% 30.47 in 10.0 mi North 5.8 mph - N/A   Clear
2:15 PM 46.9 °F - 9.7 °F 22% 30.46 in 10.0 mi North 5.8 mph - N/A   Clear
2:35 PM 48.6 °F - 9.1 °F 20% 30.46 in 10.0 mi NE 6.9 mph - N/A   Clear
2:55 PM 50.2 °F - 3.6 °F 15% 30.45 in 10.0 mi East 5.8 mph - N/A   Clear
3:15 PM 50.0 °F - 3.4 °F 15% 30.45 in 10.0 mi NE 5.8 mph - N/A   Clear
3:35 PM 50.4 °F - -0.0 °F 13% 30.45 in 10.0 mi North 4.6 mph - N/A   Clear
3:55 PM 50.7 °F - 3.0 °F 14% 30.46 in 10.0 mi NE 5.8 mph - N/A   Clear
4:15 PM 50.5 °F - 2.5 °F 14% 30.46 in 10.0 mi East 5.8 mph - N/A   Clear
4:35 PM 50.5 °F - 4.1 °F 15% 30.46 in 10.0 mi East 4.6 mph - N/A   Clear
4:55 PM 50.2 °F - 5.7 °F 16% 30.46 in 10.0 mi East 5.8 mph - N/A   Clear
5:15 PM 50.0 °F - 6.6 °F 17% 30.46 in 10.0 mi ENE 5.8 mph - N/A   Clear
5:35 PM 48.4 °F - 6.4 °F 18% 30.46 in 10.0 mi ENE 4.6 mph - N/A   Clear
5:55 PM 46.6 °F - 10.4 °F 23% 30.46 in 10.0 mi ENE 3.5 mph - N/A   Clear
6:15 PM 44.2 °F 42.7 °F 10.8 °F 26% 30.46 in 10.0 mi East 3.5 mph - N/A   Clear
6:35 PM 40.8 °F - 18.9 °F 41% 30.46 in 10.0 mi Calm Calm - N/A   Clear
6:55 PM 40.1 °F - 16.2 °F 38% 30.47 in 10.0 mi Calm Calm - N/A   Clear
7:15 PM 38.1 °F - 20.5 °F 49% 30.47 in 10.0 mi Calm Calm - N/A   Clear
7:35 PM 37.0 °F - 23.0 °F 57% 30.47 in 10.0 mi Calm Calm - N/A   Clear
7:55 PM 37.6 °F - 21.7 °F 53% 30.48 in 10.0 mi Calm Calm - N/A   Mostly Cloudy
8:15 PM 38.8 °F - 22.6 °F 52% 30.48 in 10.0 mi Calm Calm - N/A   Overcast
8:35 PM 41.5 °F 39.6 °F 23.9 °F 50% 30.48 in 10.0 mi ENE 3.5 mph - N/A   Overcast
8:55 PM 41.7 °F - 22.5 °F 46% 30.49 in 10.0 mi Calm Calm - N/A   Overcast
9:15 PM 42.8 °F 41.1 °F 19.8 °F 40% 30.49 in 10.0 mi ENE 3.5 mph - N/A   Overcast
9:35 PM 42.8 °F - 18.5 °F 38% 30.49 in 10.0 mi Calm Calm - N/A   Overcast
9:55 PM 43.2 °F - 16.7 °F 35% 30.49 in 10.0 mi Calm Calm - N/A   Overcast
10:15 PM 43.7 °F - 18.5 °F 36% 30.49 in 10.0 mi Calm Calm - N/A   Overcast
10:35 PM 43.9 °F - 17.4 °F 35% 30.48 in 10.0 mi Calm Calm - N/A   Overcast
10:55 PM 44.2 °F - 19.4 °F 37% 30.47 in 10.0 mi Calm Calm - N/A   Overcast
11:15 PM 43.9 °F 42.3 °F 16.2 °F 33% 30.46 in 10.0 mi East 3.5 mph - N/A   Overcast
11:35 PM 42.8 °F - 21.4 °F 43% 30.46 in 10.0 mi Calm Calm - N/A   Mostly Cloudy
11:55 PM 41.0 °F - 25.0 °F 53% 30.46 in 10.0 mi Calm Calm - N/A   Mostly Cloudy